一网星座-0450星 (ONEWEB-0450 )

导读 | 豆包AI

ONEWEB-0450是英国一网公司(OneWeb)的低轨卫星互联网卫星,于2021年12月27日发射,属于OneWeb全球低轨卫星星座的组成部分。卫星运行在1200公里近地轨道,配备Ku与Ka波段通信天线,可提供高速低时延的宽带接入服务,服务覆盖航空、海事、应急通信等领域,支撑OneWeb实现全球无缝网络连接的星座建设目标。

基本信息
目录编号:
50504
目录名称:
ONEWEB-0450
国际标识:
2021-132AM
轨道中心:
EARTH
卫星名称:
一网星座-0450星
卫星全名:
一网星座-0450星 (ONEWEB-0450 )
卫星状态:
在轨 (已飞行1538 天)
发射日期:
2021-12-27 UTC
国别 :
英国 (GB)
星等 :
--
轨道信息
数据来源 国际轨道数据
星历时间: 2026-03-13T14:44:23+0800
23小时前
查看轨道信息
半长轴: 7567.879km
偏心率: 0.0001982
轨道倾角: 87.925°
近地点辐角 84.938°
升交点赤经 354.514°
平近点角 275.198°
近地点: 1188.242km
远地点: 1191.242km
周期: 109.200分钟
每日圈数: 13.186864
详细信息
平衡模式:
三轴稳定
覆盖范围:
全球
运营商:
一网卫星公司
运营商所在国:
英国
制造商(研发单位):
一网卫星公司
制造商所在国:
英国
使用方式:
暂无
卫星简介
OneWeb卫星网络由648颗重约125公斤的微型卫星组成,运行在1200公里的轨道上。 每颗卫星都能够提供至少每秒8千兆位的吞吐量,以使用其高吞吐量的Ku频段有效载荷为家庭和移动平台提供互联网接入。该卫星仍在工作。
2D轨道图
3D轨道图
轨道高度分析图
轨道倾角分析图
轨道综合分析图
查看轨道综合分析图